INMARSAT 3-F2 1 24307U 96053A 25021.45620701 -.00000274 00000-0 00000-0 0 9998 2 24307 8.6894 58.9504 0004918 242.1037 292.8911 0.99992426103809 ARTEMIS 1 26863U 01029A 25021.58275811 -.00000097 00000-0 00000-0 0 9991 2 26863 14.5051 10.3021 0013006 172.7511 333.8607 0.99294885 38773 ANIK F1-R 1 28868U 05036A 25021.87385279 -.00000057 00000-0 00000-0 0 9998 2 28868 2.9977 82.9860 0001876 259.1740 346.6006 1.00272302 41323 GALAXY 15 1 28884U 05041A 25021.48383503 .00000020 00000-0 00000-0 0 9996 2 28884 2.2022 82.7204 0015036 136.8295 163.5389 0.98937825 70375 INMARSAT 4-F2 1 28899U 05044A 25020.49461767 -.00000248 00000-0 00000-0 0 9997 2 28899 4.4390 43.1838 0002641 269.0440 129.4025 1.00270754 70380 HIMAWARI 7 1 28937U 06004A 25021.89201080 -.00000208 00000-0 00000-0 0 9998 2 28937 4.4612 79.2073 0009617 169.5523 178.5289 0.99079213 69151 INMARSAT 4-F3 1 33278U 08039A 25021.87559039 -.00000123 00000-0 00000-0 0 9996 2 33278 3.8717 29.0479 0002865 273.7256 35.8951 1.00272256 41411 QZS-1 (MICHIBIKI) 1 37158U 10045A 25021.87063399 -.00000011 00000-0 00000-0 0 9992 2 37158 43.5418 122.0238 0002489 105.8253 254.3552 0.87715593 51913 GSAT 8 1 37605U 11022A 25021.89840903 .00000103 00000-0 00000-0 0 9992 2 37605 0.8057 88.4971 0008377 193.0411 218.4585 1.00273834 48096 LUCH 5A 1 37951U 11074B 25021.85682420 -.00000034 00000-0 00000-0 0 9991 2 37951 7.4462 81.5377 0003621 198.4761 316.9445 1.00275701 47926 SES 5 1 38652U 12036A 25021.91391046 .00000053 00000-0 00000-0 0 9997 2 38652 0.0539 300.0206 0001886 1.4337 154.0305 1.00272307 39355 GSAT 10 1 38779U 12051B 25021.88382630 -.00000146 00000-0 00000-0 0 9993 2 38779 0.1098 267.6712 0002560 189.3554 65.6459 1.00273449 44972 LUCH 5B 1 38977U 12061A 25021.89183705 -.00000124 00000-0 00000-0 0 9993 2 38977 9.3690 54.7549 0004412 197.8222 173.6137 1.00273229 44483 ASTRA 5B 1 39617U 14011B 25021.91507535 .00000156 00000-0 00000-0 0 9990 2 39617 0.0490 333.9256 0004322 317.3600 183.1261 1.00270901 39546 LUCH 5V 1 39727U 14023A 25021.48522510 -.00000253 00000-0 00000-0 0 9996 2 39727 3.8505 74.4399 0003726 238.2258 77.8205 1.00273848 39223 GSAT 15 1 41028U 15065A 25021.48496447 -.00000240 00000-0 00000-0 0 9995 2 41028 0.0240 94.2711 0001620 204.9843 89.9070 1.00272138 33661 QZS-2 1 42738U 17028A 25021.48717346 -.00000106 00000-0 00000-0 0 9990 2 42738 40.2231 250.6042 0751513 269.8709 277.9408 1.00274262 2496